Location: Castle
(40.7167°S, 175.9500°E)
Time: 02:41:10
(UTC+00:00)

Sich 1 Rocket - Pass Details

Date: 04 August 2024
Orbit: 614 x 648 km, 82.5° (Epoch: 07 September)

Event Time Altitude Azimuth Distance (km) Brightness Sun altitude
Rises 17:34:35 0° 183° (S) 2,941 6.9 -19.9°
Reaches altitude 10° 17:36:54 10° 178° (S) 2,021 6.2 -19.4°
Maximum altitude 17:41:16 51° 101° (E) 788 4.4 -18.6°
Drops below altitude 10° 17:45:33 10° 24° (NNE) 1,982 6.6 -17.8°
Sets 17:47:48 0° 19° (NNE) 2,878 7.3 -17.4°
